Location: Buggensegel
(47.7447°N, 9.3024°E)
Time: 12:28:24
(UTC+00:00)

Daily predictions for brighter satellites

Satellite Brightness Start Highest point End
(mag) Time Altitude Azimuth Time Altitude Azimuth Time Altitude Azimuth
Nadezhda 4 Rocket 4.3 19:26:12 10° SSE 19:32:03 47° E 19:37:59 10° NNE
Landsat 7 4.1 19:33:32 10° SSE 19:38:10 56° ENE 19:42:51 10° N
ISS -3.7 19:35:54 10° WNW 19:39:18 90° NNE 19:42:40 10° ESE
SPOT 3 Rocket 3.9 19:34:49 10° SE 19:39:54 54° ENE 19:45:00 10° N
Cosmos 1825 3.6 19:37:01 10° SSW 19:40:37 43° WNW 19:44:13 10° N
IGS 5A 3.5 19:37:15 10° SSE 19:41:21 65° ENE 19:45:29 10° N
BREEZE-M DEB (TANK) 3.7 19:30:20 10° W 19:43:28 80° N 19:47:06 10° ENE
Cosmos 1980 Rocket 2.3 19:38:37 10° NNW 19:44:16 80° WSW 19:49:55 10° SSE
Cosmos 2369 4.2 19:39:00 10° NNW 19:44:34 60° WSW 19:50:06 10° S
Cosmos 2058 3.5 19:41:15 10° SSW 19:45:24 63° WNW 19:49:36 10° N
MetOp-B 4.4 19:41:07 10° SE 19:46:20 54° ENE 19:51:33 10° N
Cosmos 2221 3.0 19:45:08 10° NNW 19:49:24 62° W 19:53:40 10° S
ERBS 4.4 19:48:11 10° W 19:50:30 19° SW 19:52:50 10° S
RESURS DK-1 2.4 19:46:49 10° SSW 19:50:58 87° WNW 19:55:09 10° NNE
USA 245 4.3 19:48:21 10° SE 19:53:05 41° ENE 19:56:59 10° N
COSMOS 2406 4.2 19:48:50 10° SW 19:54:23 53° WNW 20:00:01 10° NNE
BREEZE-M DEB (TANK) 3.5 19:51:12 10° SW 19:54:37 49° SE 20:05:29 10° ENE
Cosmos 2322 Rocket 3.2 19:49:46 10° NNW 19:54:53 34° NE 19:59:57 10° ESE
Cosmos 304 Rocket 4.1 19:54:50 10° NNW 19:59:34 55° ENE 20:03:55 12° SE
BREEZE-M DEB (TANK) 3.5 19:57:14 10° WNW 20:00:18 71° SSW 20:09:23 10° ESE
Cosmos 1933 3.8 19:57:00 10° N 20:00:55 46° ENE 20:04:32 12° SSE
Cosmos 1538 Rocket 4.0 19:56:35 10° S 20:01:45 67° ESE 20:06:54 10° NNE
Resurs 01 Rocket 1.8 19:59:35 10° S 20:04:01 76° WSW 20:08:30 10° NNW
ERS-2 2.4 20:01:44 10° N 20:05:23 72° WNW 20:09:00 10° SSW
Cosmos 2151 3.1 20:02:01 10° S 20:06:09 57° E 20:10:21 10° NNE
Cosmos 2098 Rocket 2.4 20:04:21 10° S 20:07:26 82° W 20:11:08 10° N
Gbstr 26 Del rocket 2.7 20:05:41 10° WNW 20:09:25 80° NNE 20:12:56 13° ESE
Meteor 2-3 Rocket 3.9 20:05:53 10° S 20:11:20 53° E 20:16:54 10° NNE
Meteor 2-15 Rocket 4.5 20:06:15 10° N 20:12:20 66° ENE 20:18:12 11° SSE
CARTOSAT-1 4.0 20:09:29 13° SE 20:13:04 47° ENE 20:17:14 10° N
Cosmos 2219 Rocket 4.3 20:12:24 10° N 20:15:54 17° NE 20:19:22 10° ENE
Ariane Rocket 4.2 20:13:46 10° SSW 20:18:32 40° W 20:23:19 10° NNW
SL-16 R/B 2.4 20:17:58 10° NNW 20:23:38 65° ENE 20:28:03 17° SE
Cosmos 1782 3.1 20:23:27 10° N 20:27:24 53° ENE 20:30:03 19° SSE
Cosmos 371 Rocket 4.1 20:23:32 10° NNW 20:28:10 48° WSW 20:32:47 10° S
ARIANE 5 R/B 2.8 20:26:51 17° SSE 20:30:10 59° ENE 20:34:34 10° N
Cosmos 1271 Rocket 2.7 20:29:58 10° N 20:34:00 87° E 20:36:55 18° SSE
SPOT 1/Viking Rocket 3.8 20:31:18 11° S 20:36:22 68° WSW 20:41:36 10° NNW
USA 276 2.1 20:33:55 10° WNW 20:37:04 67° SSW 20:38:32 28° SE
BREEZE-M DEB (TANK) 3.0 20:35:03 10° W 20:38:08 52° SSW 20:43:14 18° SE
Cosmos 2195 Rocket 4.4 20:32:21 10° S 20:38:29 83° E 20:44:37 10° N
Cosmos 1766 Rocket 3.9 20:37:42 19° SSE 20:40:35 47° E 20:44:48 10° NNE
Cosmos 1151 Rocket 3.2 20:36:41 10° N 20:41:01 60° ENE 20:43:40 22° SSE
ATLAS 5 CENTAUR R/B 4.1 20:38:23 10° NNW 20:42:21 22° NNE 20:46:51 10° ENE
Cosmos 1328 Rocket 3.9 20:40:53 10° N 20:45:15 51° ENE 20:47:39 24° SE
ATLAS 2AS CENTAUR R/B 4.1 20:38:14 10° WSW 20:45:50 48° NW 20:53:12 10° NE
Cosmos 923 Rocket 4.0 20:42:49 10° SSW 20:48:08 75° ESE 20:53:29 10° NNE
ATLAS 3B R/B 3.6 20:44:06 10° NW 20:50:45 43° WSW 20:56:42 14° S
Terra 2.1 20:47:56 23° SE 20:50:45 56° ENE 20:55:26 10° N
SPOT 5 2.5 20:50:48 24° SSE 20:53:25 81° ENE 20:57:49 10° NNW
USA 267 4.0 20:48:26 10° ENE 20:54:01 29° SE 20:59:01 12° S
Cosmos 1092 Rocket 4.3 20:50:22 10° SSW 20:56:37 71° W 21:02:57 10° N
Cosmos 2082 Rocket 4.0 20:51:48 10° WSW 20:56:55 34° NW 21:02:05 10° NNE
Cosmos 2056 Rocket 3.7 20:53:51 10° NNW 20:59:12 63° ENE 21:02:09 26° SE
NOSS 2-1 (C) 3.5 21:00:51 33° ESE 21:00:51 33° ESE 21:03:36 10° NE
BREEZE-M DEB (TANK) 1.9 21:00:42 10° W 21:02:52 60° N 21:03:13 45° NE
ERS-1 Rocket 3.0 21:00:35 22° S 21:03:50 82° WSW 21:08:54 10° NNW
SL-27 R/B 3.1 21:06:23 35° ESE 21:06:40 35° ESE 21:09:59 10° NE
Cosmos 2360 Rocket 2.3 21:01:24 10° NNW 21:07:01 65° ENE 21:10:08 27° SE
Meteor 2-21 4.5 21:02:38 19° S 21:07:06 67° E 21:13:12 10° NNE
NOSS 2-1 (D) 3.2 21:08:18 42° ESE 21:08:18 42° ESE 21:11:23 10° NE
Cosmos 2026 Rocket 4.3 21:03:16 10° SSW 21:09:35 70° W 21:15:52 10° N
GP-B 3.8 21:08:20 10° N 21:12:39 51° W 21:16:13 14° SSW
ISS -1.9 21:13:18 10° W 21:15:45 19° SW 21:15:56 19° SW
Cosmos 2333 Rocket 3.0 21:12:09 10° NNW 21:17:32 42° NE 21:20:38 23° ESE
Spot 2 Rocket 4.4 21:14:48 16° SSW 21:18:34 44° W 21:23:27 10° NNW
Meteor 1-10 Rocket 4.2 21:14:35 10° N 21:20:10 70° ENE 21:22:51 31° SSE
Cosmos 1371 Rocket 4.1 21:15:18 10° NNW 21:20:42 81° WSW 21:23:22 31° SSE
Cosmos 1812 2.8 21:17:48 10° NNW 21:21:41 74° W 21:23:04 38° S
Cosmos 2112 Rocket 4.0 21:17:49 12° SSW 21:22:46 87° WNW 21:28:05 10° NNE
Cosmos 1680 Rocket 3.7 21:18:00 10° SSW 21:23:17 75° WNW 21:28:34 10° NNE
Cosmos 1500 Rocket 4.2 21:22:34 33° ESE 21:23:29 37° E 21:27:35 10° NNE
Cosmos 220 Rocket 4.2 21:19:48 10° NNW 21:24:06 63° WSW 21:25:50 34° S
Cosmos 2322 4.3 21:22:21 10° NNW 21:27:54 47° NE 21:30:49 26° ESE
Okean 3 Rocket 4.1 21:24:58 18° SSW 21:28:08 60° WNW 21:32:37 10° N
USA 234 3.8 21:22:49 10° E 21:29:10 56° NNE 21:35:33 10° NW
Cosmos 292 Rocket 3.8 21:27:10 10° NNW 21:31:57 72° ENE 21:33:40 39° SE
Cosmos 2237 Rocket 4.2 21:33:38 10° N 21:37:48 20° NE 21:41:57 10° E
Meteor 2-16 Rocket 4.4 21:35:24 29° S 21:38:37 75° E 21:44:42 10° NNE
Cosmos 2322 Rocket 2.8 21:33:43 10° NW 21:39:05 47° WSW 21:41:46 27° SSW
Cosmos 1408 Rocket 3.5 21:40:12 36° SSW 21:41:58 79° W 21:46:20 10° N
Cosmos 1743 Rocket 3.7 21:42:22 46° SE 21:43:20 58° E 21:47:43 10° NNE
Cosmos 2285 Rocket 4.4 21:38:33 10° NNW 21:44:44 53° ENE 21:47:42 30° ESE
Cosmos 2315 Rocket 4.1 21:43:19 10° N 21:49:36 64° ENE 21:52:17 35° SSE
Sich 1 3.9 21:51:50 32° E 21:52:02 32° E 21:55:56 10° NNE
Cosmos 2084 3.5 21:48:52 14° SW 21:52:15 70° NW 21:56:27 10° NE
Gbstr 26 Del rocket 4.3 21:52:44 10° W 21:55:26 24° SW 21:55:26 24° SW
Cosmos 2266 Rocket 3.9 21:53:29 32° S 21:56:32 87° ESE 22:02:48 10° N
Cosmos 1862 4.4 21:57:03 25° SW 21:58:51 41° WNW 22:02:39 10° N
Cosmos 1048 Rocket 4.4 21:59:25 39° ESE 21:59:58 40° ESE 22:04:45 10° NE
Cosmos 2219 Rocket 2.3 21:55:20 10° NNW 22:00:57 69° ENE 22:02:58 40° SE
Cosmos 2228 Rocket 3.0 22:00:52 10° N 22:05:19 79° E 22:06:05 60° SSE
Cosmos 1515 Rocket 4.4 22:01:09 10° NNW 22:05:22 43° W 22:06:43 33° SW
H-2A R/B 4.0 22:01:32 10° N 22:05:39 56° WNW 22:07:14 33° SW
NOSS 2-1 (E) 3.5 22:05:22 37° W 22:06:22 54° NW 22:09:49 10° NNE
SL-16 R/B 3.9 22:02:57 10° NW 22:07:15 22° WSW 22:09:55 16° SW
NOSS 3-1 (C) 4.0 22:02:46 10° NW 22:10:15 82° SW 22:14:30 34° SSE
Cosmos 2333 4.2 22:04:54 10° NNW 22:10:30 75° WSW 22:12:13 46° S
COSMOS 2455 2.8 22:09:10 40° S 22:11:16 64° ESE 22:17:13 10° NE
COSMOS 2428 2.7 22:09:58 10° NNW 22:15:42 73° ENE 22:17:35 43° SE
Cosmos 1655 Rocket 4.4 22:12:44 25° SSW 22:16:30 62° WNW 22:22:52 10° N
Cosmos 1602 4.4 22:17:48 42° ENE 22:17:48 42° ENE 22:21:07 10° NNE
Cosmos 1515 3.9 22:17:10 10° N 22:20:48 56° ENE 22:20:48 56° ENE
Spot 4 3.7 22:21:45 57° SSE 22:22:44 88° ENE 22:27:36 10° NNW
USA 229 DEB 3.9 22:17:08 10° NW 22:24:28 84° NE 22:28:16 34° SE
USA 229 3.9 22:17:14 10° NW 22:24:34 83° NE 22:28:23 33° SE
ATLAS 5 CENTAUR R/B 2.5 22:22:26 10° NW 22:27:52 67° NE 22:30:39 34° ESE
Terra 3.8 22:26:49 15° WSW 22:28:51 19° W 22:32:16 10° NW
COSMOS 2487 2.9 22:31:49 58° N 22:31:49 58° N 22:34:42 10° NNE
Cosmos 1452 Rocket 3.6 22:26:29 10° NNW 22:31:43 65° WSW 22:32:49 51° SSW
Cosmos 1707 Rocket 3.5 22:27:36 10° N 22:31:57 68° E 22:32:18 64° ESE
ALOS 2 2.6 22:33:57 62° ESE 22:34:25 68° ENE 22:38:48 10° N
USA 267 3.2 22:31:00 10° NE 22:37:35 88° SE 22:44:08 10° SW
Cosmos 1666 4.3 22:44:25 25° ENE 22:44:25 25° ENE 22:47:03 10° NNE
NOSS 3-1 (A) 4.0 22:37:27 10° NW 22:44:56 81° SW 22:48:49 37° SSE
SL-08 ROCKET BODY 4.5 22:44:13 48° SSE 22:45:50 67° E 22:51:56 10° NNE
Cosmos 1805 Rocket 4.1 22:49:13 44° WSW 22:50:03 50° WNW 22:54:23 10° N
Cosmos 2360 Rocket 3.7 22:46:17 10° NW 22:50:31 22° W 22:51:53 20° WSW
Nadezhda 2 Rocket 4.5 22:49:09 45° S 22:51:17 88° WNW 22:57:44 10° N
Meteor 1-20 Rocket 4.3 22:54:51 45° SW 22:56:33 69° WNW 23:02:15 10° N
Cosmos 1110 Rocket 4.0 22:52:27 10° NNW 22:57:48 74° WSW 22:58:40 60° S
Cosmos 1980 3.9 22:53:54 10° NNW 22:59:34 65° ENE 23:01:19 43° ESE
Cosmos 2333 Rocket 3.0 22:56:36 10° NW 23:01:44 36° WSW 23:02:38 34° SW
Cosmos 1331 Rocket 3.9 22:57:58 10° NNW 23:03:13 74° WSW 23:03:58 62° SSW
Cosmos 1244 Rocket 4.5 23:03:47 45° SSW 23:05:46 75° W 23:12:00 10° N
USA 234 3.2 23:10:02 44° SSE 23:12:08 66° SW 23:18:40 10° WNW
Nimbus 7 Rocket 4.4 23:06:29 10° NNE 23:12:32 76° ESE 23:14:02 52° S
Cosmos 1340 Rocket 4.0 23:13:35 33° ENE 23:13:35 33° ENE 23:16:38 10° NNE
NOSS 0 Rocket 3.9 23:08:15 10° NNW 23:14:30 74° WSW 23:16:01 52° S
Cosmos 2297 Rocket 2.5 23:17:11 47° SE 23:17:48 49° ESE 23:23:16 10° NE
Okean 1-7 3.8 23:14:33 10° N 23:18:35 40° ENE 23:18:54 39° E
Lacrosse 5 2.5 23:21:59 41° ESE 23:21:59 41° ESE 23:26:02 10° ENE
Cosmos 2237 Rocket 2.1 23:16:58 10° NNW 23:22:42 88° ENE 23:24:02 55° SSE
Cosmos 2084 Rocket 3.4 23:20:02 10° NW 23:24:07 84° NNW 23:24:07 84° NNW
Cosmos 2242 Rocket 4.1 23:20:27 10° N 23:24:44 47° ENE 23:25:08 46° E
NOSS 2-2 (E) 4.4 23:20:11 10° NW 23:25:32 86° NE 23:28:32 37° SE
Cosmos 1500 3.8 23:26:57 50° WNW 23:26:57 50° WNW 23:30:29 10° N
Cosmos 1470 Rocket 3.4 23:29:03 89° WNW 23:29:03 89° WNW 23:33:24 10° N
Cosmos 2227 Rocket 2.6 23:28:53 44° SE 23:29:32 46° ESE 23:34:54 10° NE
Cosmos 1633 Rocket 3.6 23:33:06 46° W 23:33:27 47° WNW 23:37:40 10° N
Cosmos 1933 Rocket 3.5 23:35:34 71° ESE 23:35:40 71° E 23:40:07 10° NNE
Meteor 1-11 Rocket 4.1 23:41:19 44° SE 23:42:26 50° E 23:47:44 10° NNE
Cosmos 2219 Rocket 3.7 23:40:19 10° NW 23:44:19 20° W 23:44:40 20° WSW
Cosmos 2263 Rocket 4.4 23:46:36 11° ESE 23:48:05 13° E 23:50:23 10° ENE
NOSS 2-2 (C) 4.3 23:44:27 10° NW 23:49:45 81° SW 23:52:23 40° SSE
SL-16 R/B 2.7 23:44:26 10° NNW 23:50:01 56° ENE 23:52:42 30° ESE
Cosmos 1992 Rocket 4.2 23:45:25 10° NNW 23:50:39 66° ENE 23:52:06 46° SE
Cosmos 1269 Rocket 4.0 23:50:05 59° SW 23:51:05 82° WNW 23:56:24 10° NNE
PSLV R/B 3.6 23:46:52 10° NNE 23:51:41 88° WNW 23:52:12 71° SSW
Resurs 1-4 Rocket 3.9 23:49:43 10° NE 23:53:34 20° E 23:55:13 18° ESE
